Temperature
2 3 3 3 4 4 4 4 4 5 5 5 5 5 5 5 5 5 5 5 5 6 6 6 6 6 6 6 6 6 6 6 6 6 6 6 6 6 6 6 6 6 6
2 2 2 2 3 3 3 4 4 4 4 4 4 4 4 5 5 5 5 5 5 5 5 5 5 5 5 5 5 5 5 5 5 5 5 5 5 5 5 5 5 5 5
1 1 2 2 2 2 3 3 3 3 4 3 3 4 4 4 4 4 4 4 4 4 4 5 5 5 5 5 5 5 5 5 5 4 5 5 5 4 4 4 4 4 4
0 0 1 1 1 1 2 2 3 3 3 3 3 3 3 3 3 4 4 4 4 4 4 4 4 4 4 4 4 4 4 4 4 4 4 4 4 4 4 4 4 4 4
-1 -0 0 1 1 1 1 2 2 2 2 2 2 3 3 3 3 3 3 3 3 3 3 3 3 3 3 4 4 4 4 3 3 3 3 3 3 3 3 3 3 3 3
-1 -1 -0 -0 0 1 1 1 1 1 2 2 2 2 2 2 2 2 2 2 2 3 3 3 3 3 3 3 3 3 3 3 3 3 3 3 3 3 3 3 3 3 2
-2 -2 -1 -1 -0 -0 0 0 1 1 1 1 1 1 1 2 2 2 2 2 2 2 2 2 2 2 2 3 2 2 2 2 2 2 2 2 2 2 2 2 2 2 2
-3 -2 -2 -1 -1 -1 -1 -1 -0 -0 0 0 1 1 1 1 1 1 1 1 1 1 1 2 2 2 2 2 2 2 2 2 2 2 2 2 2 2 2 2 2 1 1
-3 -3 -2 -2 -2 -2 -1 -1 -1 -1 -0 -0 0 0 0 1 1 1 1 1 1 1 1 1 1 1 1 1 1 1 1 1 1 1 1 1 1 1 1 1 1 1 1
-4 -3 -3 -3 -3 -2 -2 -2 -1 -1 -1 -0 -0 -0 0 0 0 0 0 0 0 0 1 1 1 1 1 1 1 1 1 1 1 1 1 1 1 1 1 1 1 1 0
-4 -4 -4 -3 -3 -3 -2 -2 -2 -1 -1 -1 -1 -1 -0 -0 -0 -0 0 -0 0 0 0 0 0 0 0 0 0 0 1 0 0 0 0 0 0 0 0 -0 -0 -0 -0
-5 -5 -4 -4 -3 -3 -3 -3 -2 -2 -2 -1 -1 -1 -1 -1 -1 -1 -1 -1 -0 -0 -0 -0 -0 -0 -0 -0 -0 -0 -0 -0 -0 -0 -0 -0 -1 -1 -1 -1 -1 -1 -1
-5 -5 -5 -4 -4 -4 -3 -3 -3 -3 -3 -2 -2 -2 -2 -2 -1 -1 -1 -1 -1 -1 -1 -1 -1 -1 -1 -1 -1 -1 -1 -1 -1 -1 -1 -1 -1 -1 -1 -1 -1 -1 -1
-6 -5 -5 -5 -5 -4 -4 -4 -4 -3 -3 -3 -3 -3 -2 -2 -2 -2 -2 -2 -2 -2 -2 -2 -2 -2 -1 -1 -1 -1 -1 -1 -1 -1 -1 -2 -2 -2 -2 -2 -2 -2 -2
-6 -6 -6 -5 -5 -5 -5 -4 -4 -4 -4 -4 -3 -3 -3 -3 -3 -3 -2 -2 -2 -2 -2 -2 -2 -2 -2 -2 -2 -2 -2 -2 -2 -2 -2 -2 -2 -2 -2 -3 -2 -2 -3
-7 -7 -6 -6 -6 -5 -5 -5 -4 -4 -4 -4 -4 -4 -4 -4 -3 -3 -3 -3 -3 -3 -3 -3 -3 -3 -3 -3 -3 -3 -3 -3 -3 -3 -3 -3 -3 -3 -3 -3 -3 -3 -3
-8 -7 -7 -7 -6 -6 -6 -5 -5 -5 -5 -5 -5 -5 -4 -4 -4 -4 -4 -3 -3 -3 -3 -3 -3 -3 -3 -3 -3 -3 -3 -3 -3 -3 -3 -3 -3 -3 -4 -4 -4 -4 -4
-8 -8 -7 -7 -7 -6 -6 -6 -6 -6 -5 -5 -5 -5 -5 -5 -4 -4 -4 -4 -4 -4 -4 -4 -4 -4 -4 -4 -4 -3 -4 -4 -4 -4 -4 -4 -4 -4 -4 -4 -4 -5 -5
-8 -8 -8 -7 -7 -7 -7 -7 -6 -6 -6 -6 -6 -5 -5 -5 -5 -5 -5 -5 -4 -4 -4 -4 -4 -4 -4 -4 -4 -4 -4 -4 -4 -4 -4 -4 -4 -5 -5 -5 -5 -5 -5
-8 -8 -8 -8 -7 -7 -7 -7 -7 -7 -7 -7 -7 -6 -6 -6 -6 -5 -5 -5 -5 -5 -5 -5 -5 -5 -5 -5 -4 -4 -4 -4 -5 -5 -5 -5 -5 -5 -5 -5 -6 -6 -6
-9 -9 -8 -8 -8 -8 -8 -8 -8 -7 -7 -7 -7 -7 -7 -6 -6 -6 -6 -6 -6 -6 -6 -5 -5 -5 -5 -5 -5 -5 -5 -5 -5 -5 -5 -5 -5 -5 -5 -6 -6 -6 -6
-9 -9 -9 -9 -8 -8 -8 -8 -8 -8 -8 -7 -7 -7 -7 -7 -7 -7 -6 -6 -6 -6 -6 -6 -6 -6 -6 -6 -6 -6 -6 -6 -5 -5 -5 -6 -6 -6 -6 -6 -6 -6 -6
-10 -10 -9 -9 -9 -9 -9 -9 -9 -8 -8 -8 -8 -8 -8 -7 -7 -7 -7 -7 -7 -7 -7 -7 -7 -7 -6 -7 -6 -6 -6 -6 -6 -6 -6 -6 -6 -6 -6 -6 -6 -6 -7
-10 -10 -10 -10 -9 -9 -9 -9 -9 -9 -9 -8 -8 -8 -8 -8 -8 -8 -8 -8 -7 -7 -7 -7 -7 -7 -7 -7 -7 -7 -7 -7 -7 -7 -7 -7 -6 -6 -7 -7 -7 -7 -7
-11 -11 -10 -10 -10 -10 -10 -10 -9 -9 -9 -9 -9 -9 -8 -8 -8 -8 -8 -8 -8 -8 -8 -8 -8 -8 -7 -7 -7 -7 -7 -7 -7 -7 -7 -7 -7 -7 -7 -7 -7 -7 -7
-11 -11 -11 -11 -10 -10 -10 -10 -10 -10 -10 -9 -9 -9 -9 -9 -9 -9 -9 -8 -8 -8 -8 -8 -8 -8 -8 -8 -8 -8 -7 -7 -7 -7 -7 -7 -7 -7 -7 -7 -8 -8 -8
Wind_Speed
6 5 4 3 3 1 0 1 1 2 2 3 4 3 3 3 3 3 3 4 4 3 3 4 4 3 3 3 3 3 3 3 4 3 2 2 3 3 3 4 5 5 6
5 5 4 4 4 3 2 1 0 1 2 2 3 3 3 3 3 3 4 4 4 5 4 4 4 3 3 3 3 3 4 4 4 4 3 2 3 3 3 3 3 4 4
5 4 4 4 4 3 3 2 1 1 1 1 2 3 3 3 3 4 4 4 4 4 4 4 4 4 4 3 3 4 3 3 3 3 3 2 2 2 2 2 2 2 3
6 4 4 4 4 3 3 2 1 1 1 1 1 2 3 2 3 3 3 3 3 4 4 4 4 5 5 5 4 4 3 3 3 4 3 2 2 2 2 2 2 2 2
6 5 5 5 4 4 3 3 1 1 2 1 1 1 1 2 2 3 2 3 3 3 3 3 3 4 5 5 5 4 4 4 4 4 4 3 3 2 3 2 3 2 2
6 5 5 5 4 3 3 3 2 1 1 1 1 1 1 2 2 3 3 2 3 3 3 3 3 4 5 6 6 6 6 6 5 4 4 5 5 4 3 3 3 2 3
6 5 5 5 4 4 4 3 3 2 2 1 1 1 1 1 2 3 4 3 3 3 3 2 2 3 3 3 4 5 5 7 7 5 5 6 5 4 4 4 3 3 3
6 5 5 5 5 4 4 3 3 3 2 2 2 2 2 2 3 3 3 2 2 2 3 3 3 3 3 3 3 3 3 3 4 4 4 4 4 3 4 4 3 2 1
7 6 5 5 5 5 4 4 3 3 3 2 2 2 2 2 3 3 3 1 2 2 2 2 3 3 4 4 3 3 2 2 2 4 4 3 3 3 3 2 2 2 2
7 7 5 5 5 5 5 4 4 3 3 2 2 2 2 2 3 3 3 2 2 2 2 2 3 3 4 4 3 3 4 3 2 1 1 1 1 2 3 3 4 3 2
8 7 6 5 5 4 4 4 3 3 2 2 2 1 1 2 3 3 3 2 2 2 2 2 2 3 3 4 4 3 4 3 2 2 1 1 1 1 1 1 2 2 2
7 7 6 5 5 4 4 3 3 2 2 2 1 1 1 1 2 3 3 2 2 1 2 2 2 2 3 3 2 2 2 1 1 2 1 1 1 1 1 1 1 1 1
7 7 6 6 5 4 3 3 3 2 2 2 1 1 2 1 2 3 3 3 2 1 1 1 1 2 2 1 1 2 1 1 2 2 2 1 1 1 2 2 3 4 4
7 6 6 5 5 4 3 3 2 2 1 1 2 2 2 2 2 1 1 1 1 1 0 1 1 1 1 1 1 1 1 1 2 2 1 1 1 2 1 1 1 1 2
7 6 6 5 4 3 3 3 3 2 2 2 2 2 2 2 3 4 3 2 1 1 1 1 1 1 1 1 1 1 1 1 1 1 2 2 1 1 1 1 1 1 0
7 6 5 4 4 3 3 4 5 4 5 4 4 3 3 4 5 5 4 4 3 1 0 0 0 0 1 1 1 1 1 1 1 1 2 2 2 1 1 1 1 1 1
7 7 5 5 4 4 3 3 3 5 5 5 4 4 4 4 4 4 3 3 3 2 0 1 1 1 1 1 1 1 1 1 1 1 2 2 2 2 1 1 1 1 1
7 7 6 5 4 4 3 3 3 3 3 4 4 5 5 4 3 2 1 1 1 0 0 1 1 1 1 1 1 1 1 1 1 1 1 2 2 2 1 1 1 1 1
7 5 5 4 4 3 3 3 3 3 3 3 3 4 5 5 4 3 2 1 1 1 1 1 1 1 1 1 1 1 2 2 1 1 1 2 2 2 1 1 1 1 1
6 9 8 5 4 3 3 3 2 2 2 2 3 3 3 3 2 2 3 2 1 1 1 1 1 1 1 1 1 1 1 2 2 1 1 1 1 2 2 2 1 1 1
5 7 9 6 4 3 3 3 2 2 2 2 2 3 3 2 2 2 2 2 2 1 1 1 1 1 1 1 1 1 1 1 1 1 1 1 1 1 1 1 1 1 1
6 5 5 4 4 3 3 3 3 2 2 2 2 3 3 2 2 2 2 2 2 2 1 1 1 1 1 1 1 1 1 1 1 1 1 1 1 1 1 1 1 1 1
6 5 5 5 4 4 4 3 3 3 2 2 2 2 2 2 2 2 2 2 2 2 2 2 1 1 1 1 1 0 1 1 1 2 2 2 1 1 1 1 2 2 1
5 5 5 4 4 3 3 3 3 3 2 2 2 2 2 2 2 2 2 2 2 2 2 2 1 1 1 1 1 1 0 1 2 2 3 2 2 1 1 1 1 1 1
5 5 5 4 4 3 3 3 3 3 3 2 2 2 2 2 2 2 2 2 2 2 2 2 2 1 1 1 1 1 1 1 1 1 2 2 2 2 2 1 1 1 1
5 5 5 4 3 3 3 3 3 3 2 2 2 2 1 1 1 2 2 1 1 2 2 2 2 2 2 1 1 1 1 0 0 0 2 2 2 2 1 1 1 1 1
Wind_Direction
347 344 347 348 340 347 308 234 221 206 200 201 202 201 204 208 204 198 202 204 205 217 221 210 218 212 212 216 213 217 220 212 237 254 247 224 212 221 227 234 237 231 237
344 345 350 351 348 352 341 322 272 240 217 209 209 209 208 212 210 208 212 211 211 215 221 215 221 217 216 219 212 219 225 217 220 239 247 238 232 217 215 225 246 239 235
341 345 346 348 347 340 334 330 334 312 269 222 214 213 210 215 216 216 218 218 221 219 218 218 218 211 220 222 217 219 225 230 222 223 234 239 238 222 230 248 254 257 250
338 341 339 333 336 332 328 323 325 323 297 257 235 229 221 219 226 224 222 223 224 227 226 223 222 217 218 218 224 221 218 218 217 219 224 229 231 218 204 219 253 250 258
334 335 330 329 335 333 329 320 317 310 302 285 263 255 239 223 221 218 225 233 229 234 235 233 235 234 234 230 228 218 212 217 220 223 227 230 221 204 216 217 230 238 262
326 325 327 329 328 327 321 319 321 313 299 293 262 254 253 264 261 255 251 243 241 235 240 242 241 241 242 240 237 229 221 217 219 222 232 228 229 223 213 205 209 223 262
322 323 326 326 325 325 325 327 325 317 309 295 285 275 266 280 289 277 264 250 239 234 232 241 255 254 246 228 228 233 235 235 231 226 225 230 230 220 208 218 223 236 246
325 325 324 325 322 322 321 319 319 316 298 280 277 272 264 277 286 278 275 259 238 242 237 234 235 241 241 223 212 218 226 234 234 232 225 231 229 214 206 214 216 237 286
324 322 321 320 318 318 315 310 311 308 301 283 266 259 257 267 277 275 269 231 231 250 247 236 232 228 237 228 213 212 231 256 254 228 220 209 209 203 179 151 173 191 251
322 318 314 313 310 306 305 307 312 304 285 281 279 273 265 267 274 274 268 219 223 240 243 236 235 232 237 229 217 207 221 234 213 203 215 215 185 180 193 191 195 200 227
321 322 314 311 307 304 306 308 307 300 290 277 274 285 286 294 291 283 270 234 222 232 243 240 238 236 238 234 231 221 222 218 190 182 176 145 114 137 172 191 192 198 213
323 323 321 318 309 308 304 304 304 300 294 286 278 295 312 312 308 296 281 272 259 230 251 250 243 242 249 243 227 206 201 198 168 166 162 185 191 177 109 98 90 78 103
323 323 323 321 319 317 308 301 297 286 278 285 285 281 298 310 304 304 303 301 290 255 243 247 261 264 282 270 216 197 179 167 174 182 183 193 181 147 120 95 78 75 60
321 321 324 320 319 322 313 305 296 283 280 288 290 285 295 310 312 303 296 298 322 331 287 266 283 270 253 107 91 112 124 154 162 166 149 117 100 98 88 87 101 97 61
320 320 322 320 316 318 319 308 303 289 272 276 268 266 264 277 283 290 290 274 262 251 15 37 36 68 107 105 92 102 108 110 113 114 125 117 111 101 84 81 112 88 122
322 322 321 318 319 320 322 329 329 327 328 324 317 307 292 290 289 283 283 280 276 257 349 155 186 174 166 162 149 120 101 114 121 127 135 138 140 141 119 87 93 125 159
321 320 318 318 317 317 319 323 332 339 342 342 339 335 329 317 305 297 281 264 250 225 221 175 184 193 178 154 146 141 134 118 121 137 147 148 148 150 146 143 141 131 158
321 318 317 314 316 317 318 319 321 329 337 343 345 348 351 348 340 330 318 337 312 330 111 149 166 154 159 159 154 145 134 127 128 139 142 146 152 153 153 163 169 164 182
322 318 314 310 312 316 319 320 324 327 332 338 345 346 353 2 14 24 32 41 69 48 64 76 83 105 105 137 152 146 144 145 145 144 144 147 152 155 169 184 185 183 198
318 318 319 314 311 313 315 315 318 324 330 335 335 331 340 358 11 13 15 24 39 39 44 49 45 56 61 63 102 129 135 139 142 139 147 155 163 169 178 185 190 193 207
317 318 318 313 312 313 316 316 317 318 319 322 324 326 346 7 11 12 14 17 27 34 36 33 38 43 44 44 65 106 134 149 149 147 152 158 157 164 173 178 189 195 199
319 316 319 315 315 320 324 324 324 318 318 321 330 341 355 12 11 6 4 1 9 16 18 30 30 24 20 31 49 107 137 144 150 154 161 167 170 177 180 180 182 195 201
325 324 324 322 320 321 324 328 326 324 324 327 333 342 348 0 1 0 357 355 5 12 21 35 36 26 33 31 44 109 170 190 189 178 170 175 181 186 187 193 195 201 217
329 330 328 326 327 328 328 329 328 328 329 330 336 343 353 3 1 356 353 349 357 12 15 20 24 24 17 7 359 353 249 208 187 181 177 182 188 195 197 200 212 217 224
339 338 335 332 331 330 327 327 329 332 331 330 334 342 349 353 349 344 343 348 358 1 1 356 353 358 1 328 312 303 261 234 222 180 169 169 176 185 185 186 203 210 231
341 339 335 334 336 334 330 326 325 326 327 328 332 336 335 331 326 328 333 342 346 347 346 345 340 338 331 316 303 308 333 337 320 177 148 151 163 177 175 186 186 202 208
Height
1467 1466 1466 1467 1469 1470 1471 1473 1474 1476 1477 1478 1479 1480 1482 1483 1485 1486 1487 1489 1490 1492 1493 1495 1496 1498 1499 1500 1502 1503 1505 1506 1505 1506 1507 1508 1509 1510 1511 1511 1512 1512 1512
1465 1464 1464 1465 1465 1467 1468 1469 1471 1472 1473 1474 1476 1477 1478 1480 1481 1482 1483 1485 1486 1488 1489 1490 1491 1493 1494 1495 1497 1498 1499 1501 1501 1501 1502 1503 1504 1505 1506 1506 1506 1507 1507
1463 1462 1462 1463 1463 1464 1464 1465 1467 1468 1469 1471 1472 1473 1474 1476 1477 1478 1479 1481 1482 1483 1485 1486 1487 1488 1489 1490 1491 1493 1494 1495 1496 1496 1496 1498 1499 1500 1500 1501 1501 1502 1502
1462 1461 1460 1460 1461 1461 1462 1462 1463 1464 1465 1467 1468 1469 1470 1471 1473 1474 1475 1476 1477 1479 1480 1481 1482 1483 1484 1485 1486 1487 1488 1489 1490 1491 1491 1492 1494 1494 1495 1496 1496 1497 1497
1460 1459 1458 1458 1458 1459 1459 1460 1460 1461 1462 1463 1464 1465 1466 1468 1469 1470 1471 1472 1473 1474 1475 1476 1477 1479 1479 1481 1481 1482 1483 1484 1485 1486 1486 1487 1488 1489 1490 1491 1491 1491 1492
1458 1457 1456 1456 1456 1456 1457 1457 1457 1458 1459 1459 1460 1461 1463 1464 1465 1466 1467 1468 1469 1469 1470 1471 1473 1474 1475 1476 1476 1477 1478 1479 1480 1480 1481 1481 1482 1484 1485 1486 1486 1486 1487
1456 1455 1454 1454 1453 1453 1454 1454 1454 1454 1455 1456 1457 1458 1459 1460 1461 1462 1463 1464 1465 1465 1466 1467 1468 1469 1470 1471 1471 1472 1473 1474 1475 1476 1476 1476 1478 1479 1480 1481 1482 1482 1482
1454 1453 1452 1451 1451 1451 1451 1451 1451 1451 1452 1453 1453 1455 1455 1456 1457 1458 1459 1460 1461 1461 1462 1463 1464 1464 1465 1466 1467 1467 1468 1469 1470 1471 1471 1472 1473 1474 1475 1477 1477 1478 1478
1452 1451 1450 1449 1448 1448 1448 1448 1449 1449 1449 1450 1451 1451 1452 1453 1454 1455 1456 1456 1456 1457 1458 1459 1460 1460 1462 1462 1463 1463 1463 1464 1466 1467 1467 1467 1468 1470 1471 1472 1473 1473 1473
1450 1449 1448 1447 1446 1446 1446 1446 1446 1446 1446 1447 1448 1448 1449 1450 1451 1452 1452 1452 1452 1453 1454 1455 1456 1457 1458 1458 1459 1459 1459 1460 1461 1462 1463 1463 1464 1465 1466 1468 1468 1469 1469
1448 1446 1445 1444 1444 1443 1443 1443 1443 1443 1444 1444 1445 1445 1446 1447 1448 1448 1449 1449 1449 1449 1450 1451 1452 1453 1454 1454 1455 1455 1455 1456 1457 1458 1458 1459 1460 1461 1462 1463 1464 1465 1466
1446 1444 1443 1442 1441 1441 1441 1441 1441 1441 1441 1441 1441 1442 1443 1443 1444 1445 1445 1446 1446 1446 1446 1447 1448 1449 1450 1450 1451 1451 1452 1453 1453 1454 1455 1455 1456 1457 1458 1460 1460 1461 1462
1444 1442 1440 1440 1439 1439 1438 1438 1438 1438 1438 1438 1438 1438 1439 1440 1441 1441 1442 1442 1442 1443 1443 1444 1445 1445 1446 1446 1447 1448 1448 1449 1450 1451 1451 1452 1454 1454 1455 1456 1457 1457 1458
1442 1440 1439 1438 1437 1436 1436 1436 1435 1435 1435 1435 1435 1436 1436 1436 1437 1438 1438 1439 1439 1440 1440 1440 1441 1442 1442 1442 1443 1444 1445 1446 1446 1447 1448 1449 1450 1451 1452 1453 1453 1454 1454
1440 1438 1437 1435 1434 1434 1433 1433 1433 1433 1433 1433 1433 1433 1433 1433 1434 1434 1435 1435 1436 1436 1437 1437 1438 1438 1439 1439 1440 1441 1442 1443 1444 1444 1445 1446 1447 1448 1449 1449 1450 1450 1450
1438 1436 1434 1433 1432 1431 1431 1430 1430 1431 1431 1431 1431 1431 1430 1431 1430 1430 1431 1432 1433 1433 1434 1433 1434 1435 1436 1437 1438 1438 1439 1440 1441 1442 1442 1443 1444 1445 1446 1446 1447 1447 1447
1436 1434 1433 1431 1430 1429 1428 1428 1427 1428 1428 1428 1428 1428 1427 1427 1427 1427 1427 1428 1429 1430 1430 1430 1431 1432 1433 1434 1435 1436 1437 1438 1439 1439 1440 1441 1442 1442 1443 1443 1444 1444 1444
1434 1432 1431 1430 1429 1428 1427 1426 1426 1425 1424 1424 1425 1425 1425 1424 1424 1424 1425 1425 1425 1426 1427 1428 1428 1430 1431 1431 1432 1433 1434 1435 1436 1437 1437 1438 1439 1440 1440 1441 1441 1441 1442
1432 1430 1429 1428 1427 1426 1426 1425 1424 1423 1423 1422 1422 1422 1422 1422 1422 1422 1422 1423 1423 1423 1424 1425 1426 1427 1428 1429 1430 1430 1431 1432 1433 1434 1434 1435 1436 1437 1437 1438 1438 1439 1439
1430 1428 1427 1426 1425 1424 1423 1423 1422 1422 1421 1420 1420 1420 1420 1420 1419 1419 1420 1421 1421 1422 1423 1423 1424 1425 1425 1426 1427 1428 1428 1429 1430 1431 1432 1433 1433 1434 1435 1435 1436 1436 1436
1428 1426 1425 1424 1423 1422 1421 1421 1421 1420 1420 1419 1419 1419 1419 1419 1418 1418 1419 1419 1420 1421 1421 1422 1422 1423 1423 1424 1424 1425 1426 1427 1427 1428 1429 1430 1431 1431 1432 1432 1433 1433 1434
1426 1424 1423 1422 1421 1420 1419 1419 1419 1418 1418 1418 1418 1418 1418 1418 1418 1418 1418 1418 1419 1419 1420 1420 1421 1421 1422 1422 1423 1423 1423 1424 1425 1426 1426 1427 1428 1429 1429 1430 1430 1431 1431
1424 1422 1421 1420 1419 1418 1418 1417 1417 1417 1417 1416 1416 1416 1416 1416 1416 1416 1417 1417 1417 1418 1418 1419 1419 1419 1420 1420 1421 1421 1421 1422 1423 1423 1424 1425 1426 1426 1427 1427 1428 1428 1428
1423 1421 1419 1418 1417 1416 1416 1415 1415 1415 1415 1414 1414 1415 1415 1415 1415 1415 1415 1416 1416 1416 1417 1417 1417 1418 1418 1418 1419 1419 1419 1420 1421 1421 1422 1423 1423 1424 1424 1425 1425 1425 1426
1421 1420 1418 1417 1416 1415 1414 1414 1413 1413 1413 1412 1412 1413 1413 1413 1413 1413 1414 1414 1415 1415 1415 1416 1416 1416 1416 1416 1416 1417 1417 1418 1419 1419 1420 1421 1421 1421 1422 1422 1422 1423 1423
1420 1418 1417 1416 1414 1414 1413 1412 1412 1411 1411 1411 1411 1411 1411 1411 1411 1412 1412 1412 1413 1413 1413 1413 1414 1414 1414 1414 1414 1415 1415 1416 1417 1417 1418 1418 1419 1419 1419 1420 1420 1420 1420